Weather History for Clarks Point AP, Clarks Point, AK

Change the Weather History Date:

Saturday, December 21, 2013

  Actual Average Record
Temperature  
Mean Temperature 32 °F -  
Max Temperature 35 °F - - ()
Min Temperature 28 °F - - ()
Degree Days  
Heating Degree Days 34    
Moisture  
Dew Point 32 °F    
Average Humidity 99    
Maximum Humidity 100    
Minimum Humidity 93    
Precipitation  
Precipitation 0.05 in - - ()
Sea Level Pressure  
Sea Level Pressure 29.50 in    
Wind  
Wind Speed 12 mph (SSW)    
Max Wind Speed 16 mph    
Max Gust Speed 21 mph    
Visibility 4 miles    
Events Fog , Rain , Snow    
T = Trace of Precipitation, MM = Missing Value Source: NWS Daily Summary

Daily Weather History Graph

Daily Weather History Graph

Search for Another Location

Airport:

Trip Planner

Search our weather history database for the weather conditions in past years. The results will help you decide how hot, cold, wet, or windy it might be!

Date:

Astronomy

Dec. 21, 2013 Rise Set
Actual Time 10:25 AM AKST 4:39 PM AKST
Civil Twilight 9:31 AM AKST 5:33 PM AKST
Nautical Twilight 8:37 AM AKST 6:27 PM AKST
Astronomical Twilight 7:47 AM AKST 7:17 PM AKST
Moon 10:08 PM AKST (12/21) 12:00 PM AKST (12/21)
Length of Visible Light 8h 01m
Length of Day
6h 13m
Waning Gibbous, 83% of the Moon is Illuminated
Dec 21
Waning Gibbous
Dec 25
Last Quarter
Jan 1
New
Jan 7
First Quarter
Jan 15
Full

Hourly Weather History & Observations

Time (AKST) Temp. Windchill Dew Point Humidity Pressure Visibility Wind Dir Wind Speed Gust Speed Precip Events Conditions
12:56 AM 35.1 °F 25.9 °F 35.1 °F 100% 29.48 in 10.0 mi SSE 13.8 mph - 0.00 in Rain Light Rain
1:56 AM 34.0 °F 25.5 °F 34.0 °F 100% 29.48 in 10.0 mi SSE 11.5 mph - 0.01 in   Overcast
2:06 AM 33.8 °F 24.8 °F 33.8 °F 100% 29.46 in 10.0 mi SSE 12.7 mph - 0.00 in Rain Light Rain
2:39 AM 33.8 °F 25.8 °F 33.8 °F 100% 29.47 in 5.0 mi SSE 10.4 mph - 0.00 in   Overcast
2:56 AM 34.0 °F 26.0 °F 34.0 °F 100% 29.47 in 10.0 mi SE 10.4 mph - 0.00 in   Overcast
3:10 AM 33.8 °F 24.8 °F 33.8 °F 100% 29.46 in 10.0 mi SSE 12.7 mph - N/A   Overcast
3:56 AM 35.1 °F 26.4 °F 34.0 °F 96% 29.47 in 10.0 mi SE 12.7 mph - N/A   Overcast
4:56 AM 34.0 °F 23.8 °F 34.0 °F 100% 29.47 in 10.0 mi SSE 16.1 mph - 0.00 in Rain Light Rain
5:56 AM 33.1 °F 23.4 °F 33.1 °F 100% 29.47 in 10.0 mi SSE 13.8 mph - 0.01 in Rain Light Rain
6:40 AM 33.8 °F 24.3 °F 33.8 °F 100% 29.46 in 10.0 mi SSE 13.8 mph - 0.00 in   Overcast
6:56 AM 34.0 °F 24.6 °F 34.0 °F 100% 29.47 in 10.0 mi SSE 13.8 mph - 0.00 in   Overcast
7:56 AM 35.1 °F 26.9 °F 34.0 °F 96% 29.47 in 10.0 mi SSE 11.5 mph - 0.00 in   Overcast
8:52 AM 35.6 °F 27.5 °F 35.6 °F 100% 29.46 in 10.0 mi SSE 11.5 mph - 0.00 in   Overcast
8:56 AM 35.1 °F 26.9 °F 35.1 °F 100% 29.47 in 10.0 mi SSE 11.5 mph - 0.00 in   Overcast
9:56 AM 34.0 °F 25.5 °F 34.0 °F 100% 29.48 in 9.0 mi SSE 11.5 mph - 0.00 in   Overcast
10:15 AM 33.8 °F 24.8 °F 33.8 °F 100% 29.48 in 6.0 mi SSE 12.7 mph - N/A   Overcast
10:34 AM 33.8 °F 24.3 °F 33.8 °F 100% 29.48 in 10.0 mi SSE 13.8 mph - N/A   Overcast
10:56 AM 34.0 °F 25.5 °F 34.0 °F 100% 29.49 in 8.0 mi SSE 11.5 mph - N/A   Overcast
11:08 AM 33.8 °F 25.3 °F 33.8 °F 100% 29.48 in 4.0 mi SSE 11.5 mph - N/A   Overcast
11:56 AM 35.1 °F 26.9 °F 34.0 °F 96% 29.49 in 10.0 mi SSE 11.5 mph - 0.00 in Rain Light Rain
12:10 PM 35.6 °F 28.0 °F 33.8 °F 93% 29.48 in 6.0 mi SSE 10.4 mph - 0.00 in Rain Light Rain
12:37 PM 33.8 °F 26.4 °F 33.8 °F 100% 29.48 in 2.5 mi SSE 9.2 mph - 0.00 in Rain Light Rain
12:40 PM 33.8 °F 27.0 °F 33.8 °F 100% 29.48 in 1.2 mi SSE 8.1 mph - 0.00 in Rain Light Rain
12:42 PM 33.8 °F 27.0 °F 33.8 °F 100% 29.48 in 0.8 mi SSE 8.1 mph - 0.00 in Rain Light Rain
12:49 PM 33.8 °F 25.8 °F 33.8 °F 100% 29.48 in 0.5 mi SSE 10.4 mph - 0.01 in Fog , Rain Light Rain
12:56 PM 34.0 °F 26.6 °F 34.0 °F 100% 29.49 in 0.5 mi SSE 9.2 mph - 0.01 in Fog , Rain Light Rain
1:24 PM 33.8 °F 26.4 °F 33.8 °F 100% 29.48 in 0.2 mi SSE 9.2 mph - 0.00 in Fog , Rain Light Rain
1:48 PM 35.6 °F 28.0 °F 33.8 °F 93% 29.48 in 0.5 mi SSE 10.4 mph - 0.00 in Fog , Rain Light Rain
1:54 PM 33.8 °F 26.4 °F 33.8 °F 100% 29.48 in 1.0 mi SSE 9.2 mph - 0.01 in Rain Light Rain
1:56 PM 34.0 °F 26.6 °F 34.0 °F 100% 29.49 in 1.2 mi South 9.2 mph - 0.01 in Rain Light Rain
2:04 PM 33.8 °F 27.7 °F 33.8 °F 100% 29.48 in 2.5 mi South 6.9 mph - 0.00 in Rain Light Rain
2:12 PM 33.8 °F 27.0 °F 33.8 °F 100% 29.48 in 1.0 mi South 8.1 mph - 0.00 in Rain Light Rain
2:24 PM 33.8 °F 27.0 °F 33.8 °F 100% 29.48 in 0.5 mi South 8.1 mph - 0.00 in Fog , Rain Light Rain
2:43 PM 33.8 °F 27.0 °F 33.8 °F 100% 29.48 in 1.0 mi South 8.1 mph - 0.00 in Rain Light Rain
2:49 PM 33.8 °F 26.4 °F 33.8 °F 100% 29.47 in 2.0 mi South 9.2 mph - 0.00 in Rain Light Rain
2:56 PM 34.0 °F 26.6 °F 34.0 °F 100% 29.49 in 2.0 mi SSW 9.2 mph - 0.00 in Rain Light Rain
3:01 PM 33.8 °F 26.4 °F 33.8 °F 100% 29.47 in 1.0 mi SSW 9.2 mph - 0.00 in Rain Light Rain
3:10 PM 33.8 °F 26.4 °F 33.8 °F 100% 29.47 in 0.5 mi SSW 9.2 mph - 0.00 in Fog , Rain Light Rain
3:20 PM 33.8 °F 27.7 °F 33.8 °F 100% 29.47 in 1.0 mi SSW 6.9 mph - 0.00 in Rain Light Rain
3:23 PM 33.8 °F 27.0 °F 33.8 °F 100% 29.47 in 1.2 mi SSW 8.1 mph - 0.00 in Rain Light Rain
3:38 PM 33.8 °F 26.4 °F 33.8 °F 100% 29.47 in 0.8 mi SSW 9.2 mph - 0.01 in Rain Light Rain
3:53 PM 33.8 °F 25.3 °F 32.0 °F 93% 29.47 in 0.5 mi SW 11.5 mph - 0.01 in Fog , Rain Light Rain
3:56 PM 32.0 °F 23.0 °F 32.0 °F 100% 29.48 in 0.5 mi SW 11.5 mph - 0.01 in Fog , Rain Light Rain
4:29 PM 30.2 °F 21.3 °F 30.2 °F 100% 29.47 in 1.0 mi SW 10.4 mph - 0.00 in   Overcast
4:31 PM 30.2 °F 21.3 °F 30.2 °F 100% 29.47 in 2.0 mi SW 10.4 mph - 0.00 in   Overcast
4:43 PM 30.2 °F 20.2 °F 30.2 °F 100% 29.47 in 10.0 mi SW 12.7 mph - 0.00 in Snow Light Snow
4:56 PM 30.9 °F 20.7 °F 30.9 °F 100% 29.49 in 9.0 mi SW 13.8 mph - 0.00 in Snow Light Snow
5:29 PM 30.2 °F 20.2 °F 30.2 °F 100% 29.48 in 7.0 mi SW 12.7 mph - 0.00 in Snow Light Snow
5:46 PM 30.2 °F 20.2 °F 28.4 °F 93% 29.48 in 9.0 mi SW 12.7 mph - 0.00 in Snow Light Snow
5:56 PM 30.0 °F 21.1 °F 28.9 °F 96% 29.49 in 9.0 mi SW 10.4 mph - 0.00 in   Partly Cloudy
6:15 PM 30.2 °F 20.2 °F 28.4 °F 93% 29.48 in 7.0 mi SW 12.7 mph - 0.00 in Snow Light Snow
6:24 PM 30.2 °F 20.8 °F 28.4 °F 93% 29.49 in 2.5 mi SW 11.5 mph - 0.00 in Snow Light Snow
6:50 PM 30.2 °F 21.3 °F 28.4 °F 93% 29.49 in 1.0 mi SW 10.4 mph - 0.00 in Snow Light Snow
6:56 PM 30.0 °F 21.1 °F 28.9 °F 96% 29.51 in 1.2 mi SW 10.4 mph - 0.00 in Snow Light Snow
7:40 PM 30.2 °F 20.8 °F 30.2 °F 100% 29.50 in 2.5 mi NW 11.5 mph - 0.00 in Snow Light Snow
7:46 PM 30.2 °F 20.8 °F 30.2 °F 100% 29.50 in 1.8 mi NW 11.5 mph - 0.00 in Snow Light Snow
7:56 PM 30.9 °F 21.2 °F 30.9 °F 100% 29.52 in 1.2 mi NW 12.7 mph - 0.00 in Snow Light Snow
8:01 PM 30.2 °F 19.8 °F 30.2 °F 100% 29.51 in 1.0 mi NW 13.8 mph - 0.00 in Snow Light Snow
8:16 PM 30.2 °F 20.2 °F 30.2 °F 100% 29.52 in 1.5 mi NW 12.7 mph - 0.00 in   Overcast
8:31 PM 30.2 °F 20.8 °F 30.2 °F 100% 29.52 in 2.0 mi NW 11.5 mph - 0.00 in   Overcast
8:48 PM 30.2 °F 20.8 °F 30.2 °F 100% 29.52 in 2.0 mi NW 11.5 mph - 0.00 in   Overcast
8:56 PM 30.0 °F 20.0 °F 28.9 °F 96% 29.54 in 2.5 mi NW 12.7 mph - 0.00 in   Overcast
9:08 PM 30.2 °F 19.8 °F 30.2 °F 100% 29.53 in 2.0 mi NW 13.8 mph - 0.00 in Snow Light Snow
9:25 PM 30.2 °F 19.8 °F 30.2 °F 100% 29.54 in 1.5 mi NW 13.8 mph - 0.00 in Snow Light Snow
9:40 PM 30.2 °F 19.3 °F 28.4 °F 93% 29.55 in 3.0 mi North 15.0 mph - 0.00 in Snow Light Snow
9:45 PM 30.2 °F 19.3 °F 28.4 °F 93% 29.55 in 7.0 mi NNW 15.0 mph - 0.00 in Snow Light Snow
9:51 PM 30.2 °F 20.8 °F 28.4 °F 93% 29.55 in 5.0 mi NNW 11.5 mph - 0.00 in Snow Light Snow
9:56 PM 28.9 °F 20.4 °F 28.9 °F 100% 29.57 in 3.0 mi NNW 9.2 mph - 0.00 in Snow Light Snow
10:08 PM 28.4 °F 19.1 °F 28.4 °F 100% 29.56 in 2.0 mi NNW 10.4 mph - 0.00 in Snow Light Snow
10:23 PM 28.4 °F 17.5 °F 28.4 °F 100% 29.57 in 5.0 mi North 13.8 mph 20.7 mph 0.00 in   Overcast
10:42 PM 28.4 °F 18.0 °F 28.4 °F 100% 29.58 in 3.0 mi North 12.7 mph - 0.00 in Snow Light Snow
10:56 PM 28.9 °F 18.6 °F 28.0 °F 96% 29.60 in 1.8 mi North 12.7 mph - 0.00 in Snow Light Snow
11:11 PM 28.4 °F 18.0 °F 28.4 °F 100% 29.59 in 2.0 mi North 12.7 mph - 0.00 in Snow Light Snow
11:32 PM 28.4 °F - 26.6 °F 93% 29.61 in 3.0 mi North - - 0.00 in   Overcast
11:56 PM 28.0 °F - 27.0 °F 96% 29.64 in 2.0 mi North - - 0.00 in Snow Light Snow